Missoula, MT

3:23 PM MDT on September 26, 2017 (GMT -0600)
Missoula International

Weather History for KMSO - October, 2011

Change the Weather History Date:

Monday, October 3, 2011

  Actual Average Record
Temperature  
Mean Temperature 59 °F 50 °F  
Max Temperature 76 °F 65 °F 85 °F (1963)
Min Temperature 42 °F 36 °F 23 °F (1953)
Degree Days  
Heating Degree Days 6 15  
Month to date heating degree days 10 43  
Since 1 July heating degree days 163 368  
Cooling Degree Days 0 0  
Month to date cooling degree days 0 0  
Year to date cooling degree days 290 332  
Growing Degree Days 8 (Base 50)    
Moisture  
Dew Point 39 °F    
Average Humidity 54    
Maximum Humidity 82    
Minimum Humidity 25    
Precipitation  
Precipitation T in 0.03 in 0.68 in (1957)
Month to date precipitation T 0.09  
Year to date precipitation 11.00 11.29  
Snow  
Snow 0.00 in - - ()
Month to date snowfall 0.0  
Year to date snowfall 42.9  
Since 1 July snowfall 0.0  
Snow Depth 0.00 in    
Sea Level Pressure  
Sea Level Pressure 29.85 in    
Wind  
Wind Speed 4 mph (ENE)    
Max Wind Speed 25 mph    
Max Gust Speed 35 mph    
Visibility 10 miles    
Events      
T = Trace of Precipitation, MM = Missing Value Source: NWS Daily Summary

Daily Weather History Graph

Daily Weather History Graph

Search for Another Location

Airport or City:

Trip Planner

Search our weather history database for the weather conditions in past years. The results will help you decide how hot, cold, wet, or windy it might be!

Date:

Astronomy

Oct. 03, 2011 Rise Set
Actual Time 7:37 AM MDT 7:12 PM MDT
Civil Twilight 7:07 AM MDT 7:42 PM MDT
Nautical Twilight 6:31 AM MDT 8:17 PM MDT
Astronomical Twilight 5:56 AM MDT 8:53 PM MDT
Moon 2:58 PM MDT (10/3) No Moon Set
Length of Visible Light 12h 35m
Length of Day
11h 34m
Waxing Crescent, 46% of the Moon is Illuminated
Oct 3
Waxing Crescent
Oct 3
First Quarter
Oct 11
Full
Oct 19
Last Quarter
Oct 26
New

Hourly Weather History & Observations

Time (MDT) Temp. Windchill Dew Point Humidity Pressure Visibility Wind Dir Wind Speed Gust Speed Precip Events Conditions
12:53 AM 51.8 °F - 37.4 °F 58% 29.98 in 10.0 mi Calm Calm - N/A   Clear
1:53 AM 50.0 °F - 37.0 °F 61% 29.95 in 10.0 mi East 5.8 mph - N/A   Clear
2:53 AM 53.1 °F - 39.0 °F 59% 29.94 in 10.0 mi Calm Calm - N/A   Clear
3:53 AM 50.0 °F - 39.0 °F 66% 29.94 in 10.0 mi Calm Calm - N/A   Clear
4:53 AM 48.9 °F - 37.9 °F 66% 29.94 in 10.0 mi ENE 3.5 mph - N/A   Clear
5:53 AM 44.1 °F - 37.9 °F 79% 29.95 in 10.0 mi Calm Calm - N/A   Clear
6:53 AM 42.1 °F 40.2 °F 37.9 °F 85% 29.96 in 10.0 mi West 3.5 mph - N/A   Clear
7:53 AM 44.1 °F - 37.9 °F 79% 29.96 in 10.0 mi Calm Calm - N/A   Clear
8:53 AM 48.0 °F - 37.9 °F 68% 29.95 in 9.0 mi Calm Calm - N/A   Clear
9:53 AM 50.0 °F - 39.0 °F 66% 29.94 in 10.0 mi Calm Calm - N/A   Clear
10:53 AM 57.0 °F - 39.0 °F 51% 29.92 in 10.0 mi Calm Calm - N/A   Clear
11:53 AM 59.0 °F - 39.2 °F 48% 29.91 in 10.0 mi Calm Calm - N/A   Unknown
12:53 PM 64.9 °F - 37.0 °F 36% 29.85 in 10.0 mi Variable 3.5 mph - N/A   Clear
1:53 PM 70.0 °F - 37.9 °F 31% 29.82 in 10.0 mi Variable 4.6 mph - N/A   Clear
2:53 PM 73.0 °F - 37.9 °F 28% 29.77 in 10.0 mi West 3.5 mph - N/A   Clear
3:53 PM 75.0 °F - 37.0 °F 25% 29.74 in 10.0 mi NW 5.8 mph - N/A   Clear
4:53 PM 75.0 °F - 37.9 °F 26% 29.73 in 10.0 mi North 6.9 mph - N/A   Scattered Clouds
5:53 PM 71.1 °F - 44.1 °F 38% 29.73 in 10.0 mi SE 4.6 mph - N/A   Clear
6:53 PM 69.1 °F - 42.1 °F 38% 29.73 in 10.0 mi East 3.5 mph - N/A   Clear
7:53 PM 72.0 °F - 41.0 °F 33% 29.74 in 10.0 mi North 13.8 mph - 0.00 in   Mostly Cloudy
8:53 PM 66.9 °F - 41.0 °F 39% 29.73 in 10.0 mi South 11.5 mph - N/A   Clear
9:53 PM 64.0 °F - 43.0 °F 46% 29.72 in 10.0 mi ENE 5.8 mph - N/A   Clear
10:53 PM 61.0 °F - 44.1 °F 54% 29.74 in 10.0 mi East 6.9 mph - N/A   Mostly Cloudy
11:53 PM 63.0 °F - 43.0 °F 48% 29.70 in 10.0 mi ESE 5.8 mph - N/A   Partly Cloudy